Simultaneous Nadir Overpasses (SNOs) Predictions

Prediction of SNOs between METOP-A and NOAA-19 Satellite Orbit:

Table of predicted SNOs for the next 14.0 days since TLE Epoch: 6/30/2017
Index Date (METOP-A) Time (METOP-A) Lat,Lon (METOP-A) SZA (METOP-A ) Date (NOAA-19) Time (NOAA-19) Lat,Lon (NOAA-19) SZA (NOAA-19 ) Distance(km) Time Diff (sec)
1 07/11/2017 02:11:56 77.39, 151.85 55.25 07/11/2017 02:10:55 77.41, 151.88 55.27 2.48 61
2 07/11/2017 03:02:37 -77.41, -40.71 124.72 07/11/2017 03:01:50 -77.37, -40.69 124.76 4.11 47
3 07/11/2017 03:53:18 77.37, 126.43 55.24 07/11/2017 03:52:56 77.38, 126.49 55.26 2.51 22
4 07/11/2017 04:43:59 -77.39, -66.14 124.73 07/11/2017 04:43:52 -77.39, -66.28 124.73 3.45 7
5 07/11/2017 05:34:40 77.35, 101.00 55.23 07/11/2017 05:34:57 77.36, 101.10 55.25 2.82 17
6 07/11/2017 06:25:21 -77.37, -91.56 124.74 07/11/2017 06:25:53 -77.37, -91.67 124.75 2.74 32
7 07/11/2017 07:16:02 77.33, 75.57 55.22 07/11/2017 07:16:58 77.34, 75.70 55.23 3.33 56
8 07/11/2017 08:06:43 -77.35,-116.99 124.75 07/11/2017 08:07:54 -77.35,-117.07 124.76 2.11 71




NCC Satellite Simultaneous Nadir Overpasses (SNOs) Prediction Service
